�������l�o���
Date,Time,MP-1(��Sv/h),MP-2(��Sv/h),MP-3(��Sv/h),MP-4(��Sv/h),MP-5(��Sv/h),MP-6(��Sv/h),MP-7(��Sv/h),����,����(m/s),���J
2023/10/10,00:00,0.143,0.132,0.207,0.196,0.205,0.117,0.078,�k�k��,5.9,�L
2023/10/10,00:10,0.145,0.132,0.207,0.197,0.205,0.118,0.077,�k�k��,4.9,�L
2023/10/10,00:20,0.144,0.132,0.209,0.197,0.205,0.118,0.079,�k��,6.4,�L
2023/10/10,00:30,0.143,0.132,0.209,0.197,0.207,0.117,0.079,�k��,6.5,�L
2023/10/10,00:40,0.144,0.132,0.208,0.198,0.207,0.117,0.079,�k�k��,6.7,�L
2023/10/10,00:50,0.145,0.132,0.208,0.199,0.208,0.118,0.078,�k�k��,6.4,�L
2023/10/10,01:00,0.142,0.132,0.208,0.198,0.206,0.117,0.079,�k�k��,6.9,�L
2023/10/10,01:10,0.144,0.131,0.208,0.198,0.207,0.117,0.077,�k�k��,6.5,�L
2023/10/10,01:20,0.143,0.131,0.207,0.197,0.204,0.117,0.078,�k�k��,7.0,�L
2023/10/10,01:30,0.143,0.131,0.207,0.196,0.207,0.116,0.077,�k��,7.6,�L
2023/10/10,01:40,0.142,0.131,0.206,0.196,0.205,0.115,0.076,�k�k��,8.1,�L
2023/10/10,01:50,0.142,0.130,0.207,0.196,0.206,0.116,0.075,�k�k��,8.4,�L
2023/10/10,02:00,0.142,0.130,0.205,0.196,0.202,0.114,0.076,�k��,7.7,�L
2023/10/10,02:10,0.142,0.130,0.206,0.195,0.206,0.115,0.075,�k�k��,7.6,�L
2023/10/10,02:20,0.142,0.130,0.206,0.195,0.204,0.114,0.075,�k�k��,7.6,�L
2023/10/10,02:30,0.142,0.129,0.205,0.196,0.206,0.114,0.075,�k��,7.5,�L
2023/10/10,02:40,0.142,0.130,0.206,0.195,0.203,0.114,0.076,�k��,7.6,�L
2023/10/10,02:50,0.141,0.130,0.206,0.196,0.206,0.115,0.075,�k��,8.5,�L
2023/10/10,03:00,0.142,0.129,0.203,0.194,0.203,0.114,0.075,�k��,8.6,�L
2023/10/10,03:10,0.141,0.129,0.205,0.197,0.204,0.114,0.074,�k�k��,8.4,�L
2023/10/10,03:20,0.142,0.130,0.205,0.194,0.203,0.113,0.075,�k��,7.6,��
2023/10/10,03:30,0.141,0.128,0.206,0.196,0.204,0.114,0.074,�k��,6.7,��
2023/10/10,03:40,0.141,0.129,0.205,0.195,0.204,0.114,0.074,�k��,5.8,��
2023/10/10,03:50,0.140,0.128,0.206,0.196,0.203,0.113,0.074,�k��,6.1,��
2023/10/10,04:00,0.142,0.128,0.204,0.194,0.204,0.114,0.074,�k��,6.6,��
2023/10/10,04:10,0.140,0.128,0.206,0.195,0.201,0.113,0.074,�k��,6.0,��
2023/10/10,04:20,0.142,0.129,0.204,0.194,0.204,0.114,0.073,�k��,6.2,��
2023/10/10,04:30,0.141,0.127,0.207,0.195,0.202,0.112,0.074,�k��,5.8,��
2023/10/10,04:40,0.141,0.128,0.204,0.195,0.204,0.114,0.073,�k��,5.5,��
2023/10/10,04:50,0.142,0.129,0.206,0.195,0.202,0.114,0.074,�k��,5.7,��
2023/10/10,05:00,0.141,0.128,0.205,0.193,0.203,0.113,0.074,�k�k��,4.9,��
2023/10/10,05:10,0.141,0.128,0.207,0.194,0.203,0.114,0.073,�k�k��,5.0,��
2023/10/10,05:20,0.141,0.128,0.206,0.195,0.204,0.113,0.073,�k��,5.5,�L
2023/10/10,05:30,0.142,0.129,0.207,0.194,0.205,0.114,0.073,�k��,6.5,�L
2023/10/10,05:40,0.141,0.128,0.205,0.195,0.203,0.114,0.073,�k��,6.3,�L
2023/10/10,05:50,0.141,0.129,0.206,0.195,0.205,0.114,0.073,�k��,5.6,��
2023/10/10,06:00,0.141,0.128,0.206,0.195,0.202,0.114,0.073,�k��,6.1,��
2023/10/10,06:10,0.142,0.128,0.206,0.194,0.205,0.113,0.074,�k��,5.6,��
2023/10/10,06:20,0.142,0.128,0.205,0.196,0.203,0.114,0.074,�k��,5.2,��
2023/10/10,06:30,0.141,0.129,0.206,0.196,0.205,0.114,0.074,�k��,5.2,��
2023/10/10,06:40,0.142,0.128,0.207,0.196,0.204,0.114,0.074,�k��,5.2,��
2023/10/10,06:50,0.141,0.128,0.206,0.195,0.203,0.114,0.074,�k��,4.7,��
2023/10/10,07:00,0.142,0.128,0.206,0.196,0.205,0.114,0.074,�k��,4.6,��
2023/10/10,07:10,0.142,0.129,0.207,0.195,0.202,0.115,0.075,�k��,3.8,��
2023/10/10,07:20,0.142,0.129,0.206,0.196,0.205,0.113,0.074,�k��,3.9,��
2023/10/10,07:30,0.141,0.128,0.205,0.196,0.204,0.115,0.074,�k��,3.9,��
2023/10/10,07:40,0.142,0.129,0.206,0.195,0.204,0.114,0.074,�k��,3.1,��
2023/10/10,07:50,0.143,0.129,0.205,0.197,0.205,0.114,0.074,�k��,2.9,��
2023/10/10,08:00,0.142,0.128,0.208,0.194,0.203,0.114,0.074,�k��,2.7,��
2023/10/10,08:10,0.143,0.128,0.206,0.197,0.206,0.114,0.075,�k�k��,2.8,��
2023/10/10,08:20,0.142,0.128,0.206,0.196,0.204,0.115,0.074,�k,3.0,��
2023/10/10,08:30,0.142,0.130,0.207,0.197,0.205,0.115,0.074,�k�k��,3.8,��
2023/10/10,08:40,0.142,0.128,0.205,0.198,0.207,0.115,0.073,�k�k��,4.3,��
2023/10/10,08:50,0.141,0.130,0.208,0.195,0.204,0.115,0.075,�k�k��,3.9,��
2023/10/10,09:00,0.143,0.130,0.205,0.197,0.206,0.114,0.074,�k�k��,4.1,��
2023/10/10,09:10,0.143,0.129,0.207,0.197,0.205,0.115,0.074,�k,3.7,��
2023/10/10,09:20,0.143,0.130,0.208,0.195,0.205,0.116,0.075,�k�k��,1.8,�L
2023/10/10,09:30,0.143,0.128,0.206,0.197,0.207,0.114,0.074,�k��,0.9,�L
2023/10/10,09:40,0.142,0.130,0.208,0.196,0.205,0.115,0.074,�k,0.8,�L
2023/10/10,09:50,0.143,0.129,0.206,0.197,0.204,0.115,0.075,�k,0.7,�L
2023/10/10,10:00,0.143,0.129,0.207,0.197,0.206,0.115,0.074,�k,1.3,��
2023/10/10,10:10,0.141,0.129,0.208,0.196,0.205,0.116,0.074,�k,1.0,��
2023/10/10,10:20,0.143,0.128,0.205,0.196,0.202,0.114,0.074,�k,1.8,��
2023/10/10,10:30,0.143,0.129,0.205,0.196,0.206,0.114,0.074,�k�k��,2.1,��
2023/10/10,10:40,0.141,0.129,0.209,0.197,0.206,0.114,0.074,�k,2.1,��
2023/10/10,10:50,0.142,0.129,0.207,0.195,0.204,0.115,0.074,�k,2.3,��
2023/10/10,11:00,0.143,0.127,0.206,0.194,0.203,0.115,0.075,�k,2.9,��
2023/10/10,11:10,0.143,0.130,0.206,0.196,0.206,0.114,0.074,�k,3.1,��
2023/10/10,11:20,0.141,0.129,0.208,0.198,0.205,0.114,0.074,�k�k��,4.2,��
2023/10/10,11:30,0.142,0.129,0.206,0.196,0.203,0.115,0.073,�k,3.9,��
2023/10/10,11:40,0.143,0.130,0.206,0.196,0.206,0.116,0.074,�k�k��,5.5,��
2023/10/10,11:50,0.142,0.129,0.208,0.199,0.207,0.115,0.074,�k�k��,5.9,��
2023/10/10,12:00,0.141,0.128,0.208,0.198,0.204,0.114,0.074,�k�k��,7.3,��
2023/10/10,12:10,0.143,0.128,0.206,0.196,0.204,0.114,0.073,�k,4.4,��
2023/10/10,12:20,0.142,0.129,0.206,0.196,0.207,0.116,0.074,�k,4.3,��
2023/10/10,12:30,0.142,0.130,0.208,0.199,0.205,0.115,0.075,�k�k��,6.8,��
2023/10/10,12:40,0.143,0.128,0.208,0.197,0.204,0.115,0.074,�k�k��,5.5,��
2023/10/10,12:50,0.142,0.129,0.207,0.196,0.203,0.114,0.073,�k�k��,6.3,��
2023/10/10,13:00,0.142,0.129,0.206,0.195,0.204,0.115,0.074,�k,4.8,��
2023/10/10,13:10,0.142,0.129,0.207,0.197,0.207,0.116,0.074,�k,4.0,��
2023/10/10,13:20,0.144,0.129,0.209,0.197,0.206,0.116,0.074,�k,6.0,��
2023/10/10,13:30,0.142,0.130,0.207,0.196,0.204,0.114,0.073,�k,5.9,��
2023/10/10,13:40,0.142,0.129,0.208,0.197,0.206,0.115,0.074,�k,5.2,��
2023/10/10,13:50,0.143,0.129,0.207,0.199,0.205,0.115,0.074,�k,5.2,��
2023/10/10,14:00,0.143,0.130,0.207,0.196,0.204,0.115,0.074,�k,5.0,��
2023/10/10,14:10,0.142,0.128,0.206,0.195,0.204,0.114,0.074,�k,4.6,��
2023/10/10,14:20,0.143,0.129,0.208,0.198,0.207,0.115,0.074,�k,4.6,�L
2023/10/10,14:30,0.143,0.130,0.208,0.199,0.206,0.116,0.075,�k,4.5,�L
2023/10/10,14:40,0.143,0.130,0.210,0.197,0.205,0.115,0.074,�k,4.1,�L
2023/10/10,14:50,0.144,0.131,0.209,0.200,0.207,0.116,0.075,�k,4.4,�L
2023/10/10,15:00,0.144,0.130,0.209,0.199,0.205,0.116,0.074,�k,4.0,�L
2023/10/10,15:10,0.145,0.131,0.211,0.198,0.207,0.115,0.074,�k,3.5,�L
2023/10/10,15:20,0.144,0.131,0.209,0.199,0.208,0.116,0.075,�k,3.6,�L
2023/10/10,15:30,0.144,0.132,0.211,0.200,0.206,0.117,0.075,�k��,2.2,�L
2023/10/10,15:40,0.147,0.133,0.211,0.201,0.210,0.119,0.079,�k�k��,2.3,�L
2023/10/10,15:50,0.149,0.137,0.214,0.200,0.208,0.121,0.080,�k,4.0,�L
2023/10/10,16:00,0.152,0.139,0.215,0.204,0.212,0.122,0.082,�k,4.4,�L
2023/10/10,16:10,0.152,0.138,0.214,0.202,0.210,0.122,0.082,�k,3.9,�L
2023/10/10,16:20,0.151,0.138,0.214,0.204,0.210,0.121,0.081,�k,3.5,�L
2023/10/10,16:30,0.150,0.136,0.213,0.202,0.210,0.121,0.080,�k,3.4,�L
2023/10/10,16:40,0.148,0.136,0.213,0.202,0.207,0.120,0.078,�k�k��,3.0,�L
2023/10/10,16:50,0.148,0.134,0.211,0.201,0.209,0.118,0.078,�k�k��,3.4,��
2023/10/10,17:00,0.146,0.134,0.210,0.199,0.206,0.118,0.078,�k��,3.6,��
2023/10/10,17:10,0.146,0.132,0.209,0.199,0.207,0.118,0.076,�k��,3.8,��
2023/10/10,17:20,0.145,0.131,0.210,0.198,0.206,0.116,0.077,�k��,4.6,��
2023/10/10,17:30,0.143,0.131,0.207,0.199,0.207,0.117,0.075,�k��,4.6,��
2023/10/10,17:40,0.145,0.130,0.209,0.197,0.206,0.116,0.075,�k��,5.4,��
2023/10/10,17:50,0.143,0.130,0.207,0.197,0.204,0.116,0.074,�k��,7.4,��
2023/10/10,18:00,0.144,0.128,0.207,0.197,0.206,0.116,0.076,�k��,8.2,��
2023/10/10,18:10,0.143,0.129,0.208,0.196,0.205,0.115,0.074,�k��,8.5,��
2023/10/10,18:20,0.144,0.129,0.207,0.196,0.207,0.116,0.075,�k��,9.5,��
2023/10/10,18:30,0.143,0.130,0.207,0.195,0.204,0.115,0.075,�k��,9.0,��
2023/10/10,18:40,0.143,0.129,0.206,0.197,0.206,0.116,0.075,�k�k��,7.7,��
2023/10/10,18:50,0.142,0.130,0.207,0.197,0.204,0.114,0.074,�k��,7.6,��
2023/10/10,19:00,0.142,0.127,0.207,0.197,0.205,0.116,0.074,�k��,5.1,��
2023/10/10,19:10,0.141,0.129,0.206,0.196,0.205,0.115,0.074,�k��,6.7,��
2023/10/10,19:20,0.142,0.128,0.207,0.197,0.206,0.115,0.074,�k��,8.4,��
2023/10/10,19:30,0.142,0.128,0.205,0.197,0.204,0.115,0.074,�k��,8.2,��
2023/10/10,19:40,0.142,0.127,0.208,0.196,0.205,0.115,0.074,�k��,6.5,��
2023/10/10,19:50,0.143,0.129,0.207,0.196,0.204,0.115,0.073,�k��,5.9,��
2023/10/10,20:00,0.142,0.129,0.208,0.196,0.204,0.115,0.074,�k��,8.6,��
2023/10/10,20:10,0.142,0.129,0.206,0.196,0.206,0.115,0.074,�k��,5.0,��
2023/10/10,20:20,0.143,0.129,0.207,0.197,0.204,0.115,0.073,�k��,9.5,��
2023/10/10,20:30,0.142,0.129,0.206,0.197,0.205,0.116,0.074,�k��,9.2,��
2023/10/10,20:40,0.142,0.128,0.207,0.196,0.206,0.115,0.074,�k�k��,6.7,��
2023/10/10,20:50,0.143,0.129,0.207,0.197,0.205,0.115,0.074,�k�k��,5.1,��
2023/10/10,21:00,0.142,0.130,0.207,0.197,0.205,0.115,0.074,�k�k��,5.1,��
2023/10/10,21:10,0.142,0.129,0.207,0.198,0.205,0.115,0.074,�k�k��,5.4,��
2023/10/10,21:20,0.144,0.128,0.206,0.196,0.205,0.115,0.074,�k�k��,6.2,��
2023/10/10,21:30,0.142,0.129,0.207,0.197,0.205,0.114,0.074,�k��,6.6,��
2023/10/10,21:40,0.143,0.129,0.208,0.197,0.205,0.115,0.073,�k�k��,5.7,��
2023/10/10,21:50,0.142,0.128,0.207,0.197,0.206,0.114,0.074,�k��,5.0,��
2023/10/10,22:00,0.143,0.129,0.207,0.198,0.206,0.115,0.074,�k��,6.2,��
2023/10/10,22:10,0.143,0.129,0.206,0.198,0.205,0.115,0.074,�k��,5.0,��
2023/10/10,22:20,0.143,0.129,0.208,0.197,0.206,0.115,0.074,�k��,3.8,��
2023/10/10,22:30,0.142,0.129,0.207,0.196,0.204,0.116,0.074,�k��,3.7,��
2023/10/10,22:40,0.142,0.129,0.206,0.197,0.206,0.115,0.074,�k�k��,3.7,��
2023/10/10,22:50,0.142,0.128,0.208,0.198,0.205,0.115,0.074,�k,3.9,��
2023/10/10,23:00,0.143,0.130,0.207,0.197,0.206,0.115,0.074,�k,3.9,��
2023/10/10,23:10,0.142,0.128,0.207,0.199,0.205,0.115,0.074,�k��,3.9,��
2023/10/10,23:20,0.143,0.129,0.208,0.196,0.205,0.115,0.073,�k�k��,5.9,��
2023/10/10,23:30,0.143,0.128,0.207,0.199,0.205,0.115,0.074,�k�k��,7.2,��
2023/10/10,23:40,0.143,0.130,0.207,0.197,0.205,0.115,0.074,�k�k��,7.2,��
2023/10/10,23:50,0.142,0.129,0.207,0.196,0.205,0.115,0.074,�k�k��,6.3,��
